Time,TemperatureF,DewpointF,PressureIn,WindDirection,WindDirectionDegrees,WindSpeedMPH,WindSpeedGustMPH,Humidity,HourlyPrecipIn,Conditions,Clouds,dailyrainin,SolarRadiationWatts/m^2,SoftwareType,DateUTC
2013-01-02 00:02:00,45.0,23.0,-100.00,East,92,0.0,0.0,41,0.00,,,-99.99,1.000000,,2013-01-02 08:02:00,
2013-01-02 00:11:00,45.0,23.0,-100.00,East,92,0.0,0.0,41,0.00,,,-99.99,1.000000,,2013-01-02 08:11:00,
2013-01-02 00:22:00,45.0,23.0,-100.00,East,92,0.0,0.0,41,0.00,,,-99.99,1.000000,,2013-01-02 08:22:00,
2013-01-02 00:53:00,43.0,24.0,-100.00,SE,140,0.0,0.0,46,-99.99,,,-99.99,1.000000,,2013-01-02 08:53:00,
2013-01-02 01:02:00,43.0,24.0,-100.00,SE,140,0.0,0.0,46,-99.99,,,-99.99,1.000000,,2013-01-02 09:02:00,
2013-01-02 01:12:00,43.0,24.0,-100.00,SE,140,0.0,0.0,46,-99.99,,,-99.99,1.000000,,2013-01-02 09:12:00,
2013-01-02 01:22:00,43.0,24.0,-100.00,SE,140,0.0,0.0,46,-99.99,,,-99.99,1.000000,,2013-01-02 09:22:00,
2013-01-02 01:32:00,43.0,24.0,-100.00,SE,140,0.0,0.0,46,-99.99,,,-99.99,1.000000,,2013-01-02 09:32:00,
2013-01-02 01:52:00,42.0,25.0,-100.00,East,93,0.0,0.0,50,0.00,,,0.00,1.000000,,2013-01-02 09:52:00,
2013-01-02 02:02:00,42.0,25.0,-100.00,East,93,0.0,0.0,50,0.00,,,0.00,1.000000,,2013-01-02 10:02:00,
2013-01-02 02:12:00,42.0,25.0,-100.00,East,93,0.0,0.0,50,0.00,,,0.00,1.000000,,2013-01-02 10:12:00,
2013-01-02 02:22:00,42.0,25.0,-100.00,East,93,0.0,0.0,50,0.00,,,0.00,1.000000,,2013-01-02 10:22:00,
2013-01-02 02:32:00,42.0,25.0,-100.00,East,93,0.0,0.0,50,0.00,,,0.00,1.000000,,2013-01-02 10:32:00,
2013-01-02 02:52:00,41.0,23.0,-100.00,South,172,0.0,0.0,48,0.00,,,0.00,1.000000,,2013-01-02 10:52:00,
2013-01-02 03:02:00,41.0,23.0,-100.00,South,172,0.0,0.0,48,0.00,,,0.00,1.000000,,2013-01-02 11:02:00,
2013-01-02 03:11:00,41.0,23.0,-100.00,South,172,0.0,0.0,48,0.00,,,0.00,1.000000,,2013-01-02 11:11:00,
2013-01-02 03:22:00,41.0,23.0,-100.00,South,172,0.0,0.0,48,0.00,,,0.00,1.000000,,2013-01-02 11:22:00,
2013-01-02 03:32:00,41.0,23.0,-100.00,South,172,0.0,0.0,48,0.00,,,0.00,1.000000,,2013-01-02 11:32:00,
2013-01-02 03:52:00,41.0,23.0,-100.00,East,93,0.0,0.0,49,0.00,,,0.00,1.000000,,2013-01-02 11:52:00,
2013-01-02 04:02:00,41.0,23.0,-100.00,East,93,0.0,0.0,49,0.00,,,0.00,1.000000,,2013-01-02 12:02:00,
2013-01-02 04:12:00,41.0,23.0,-100.00,East,93,0.0,0.0,49,0.00,,,0.00,1.000000,,2013-01-02 12:12:00,
2013-01-02 04:22:00,41.0,23.0,-100.00,East,93,0.0,0.0,49,0.00,,,0.00,1.000000,,2013-01-02 12:22:00,
2013-01-02 04:32:00,41.0,23.0,-100.00,East,93,0.0,0.0,49,0.00,,,0.00,1.000000,,2013-01-02 12:32:00,
2013-01-02 04:53:00,40.0,26.0,-100.00,ESE,121,0.0,0.0,57,0.00,,,0.00,1.000000,,2013-01-02 12:53:00,
2013-01-02 05:02:00,40.0,26.0,-100.00,ESE,121,0.0,0.0,57,0.00,,,0.00,1.000000,,2013-01-02 13:02:00,
2013-01-02 05:12:00,40.0,26.0,-100.00,ESE,121,0.0,0.0,57,0.00,,,0.00,1.000000,,2013-01-02 13:12:00,
2013-01-02 05:22:00,40.0,26.0,-100.00,ESE,121,0.0,0.0,57,0.00,,,0.00,1.000000,,2013-01-02 13:22:00,
2013-01-02 05:32:00,40.0,26.0,-100.00,ESE,121,0.0,0.0,57,0.00,,,0.00,1.000000,,2013-01-02 13:32:00,
2013-01-02 05:52:00,41.0,25.0,-100.00,East,93,0.0,0.0,52,0.00,,,0.00,1.000000,,2013-01-02 13:52:00,
2013-01-02 06:02:00,41.0,25.0,-100.00,East,93,0.0,0.0,52,0.00,,,0.00,1.000000,,2013-01-02 14:02:00,
2013-01-02 06:12:00,41.0,25.0,-100.00,East,93,0.0,0.0,52,0.00,,,0.00,1.000000,,2013-01-02 14:12:00,
2013-01-02 06:22:00,41.0,25.0,-100.00,East,93,0.0,0.0,52,0.00,,,0.00,1.000000,,2013-01-02 14:22:00,
2013-01-02 06:32:00,41.0,25.0,-100.00,East,93,0.0,0.0,52,0.00,,,0.00,1.000000,,2013-01-02 14:32:00,
2013-01-02 06:33:00,39.0,25.0,-100.00,ESE,112,0.0,0.0,57,0.00,,,0.00,1.000000,,2013-01-02 14:33:00,
2013-01-02 06:53:00,39.0,25.0,-100.00,ESE,112,0.0,0.0,57,0.00,,,0.00,1.000000,,2013-01-02 14:53:00,
2013-01-02 07:02:00,39.0,25.0,-100.00,ESE,112,0.0,0.0,57,0.00,,,0.00,1.000000,,2013-01-02 15:02:00,
2013-01-02 07:12:00,39.0,25.0,-100.00,ESE,112,0.0,0.0,57,0.00,,,0.00,1.000000,,2013-01-02 15:12:00,
2013-01-02 07:22:00,39.0,25.0,-100.00,ESE,112,0.0,0.0,57,0.00,,,0.00,1.000000,,2013-01-02 15:22:00,
2013-01-02 07:53:00,40.0,23.0,-100.00,SE,125,0.0,0.0,50,0.00,,,0.00,2.000000,,2013-01-02 15:53:00,
2013-01-02 08:03:00,40.0,23.0,-100.00,SE,125,0.0,0.0,50,0.00,,,0.00,2.000000,,2013-01-02 16:03:00,
2013-01-02 08:12:00,40.0,23.0,-100.00,SE,125,0.0,0.0,50,0.00,,,0.00,2.000000,,2013-01-02 16:12:00,
2013-01-02 08:22:00,40.0,23.0,-100.00,SE,125,0.0,0.0,50,0.00,,,0.00,2.000000,,2013-01-02 16:22:00,
2013-01-02 08:32:00,40.0,23.0,-100.00,SE,125,0.0,0.0,50,0.00,,,0.00,2.000000,,2013-01-02 16:32:00,
2013-01-02 08:33:00,42.0,25.0,-100.00,SE,136,0.0,0.0,50,0.00,,,0.00,37.000000,,2013-01-02 16:33:00,
2013-01-02 08:53:00,42.0,25.0,-100.00,SE,136,0.0,0.0,50,0.00,,,0.00,37.000000,,2013-01-02 16:53:00,
2013-01-02 09:03:00,42.0,25.0,-100.00,SE,136,0.0,0.0,50,0.00,,,0.00,37.000000,,2013-01-02 17:03:00,
2013-01-02 09:12:00,42.0,25.0,-100.00,SE,136,0.0,0.0,50,0.00,,,0.00,37.000000,,2013-01-02 17:12:00,
2013-01-02 09:22:00,42.0,25.0,-100.00,SE,136,0.0,0.0,50,0.00,,,0.00,37.000000,,2013-01-02 17:22:00,
2013-01-02 09:53:00,43.0,24.0,-100.00,SE,127,0.0,0.0,46,0.00,,,0.00,136.000000,,2013-01-02 17:53:00,
2013-01-02 10:02:00,43.0,24.0,-100.00,SE,127,0.0,0.0,46,0.00,,,0.00,136.000000,,2013-01-02 18:02:00,
2013-01-02 10:12:00,43.0,24.0,-100.00,SE,127,0.0,0.0,46,0.00,,,0.00,136.000000,,2013-01-02 18:12:00,
2013-01-02 10:22:00,43.0,24.0,-100.00,SE,127,0.0,0.0,46,0.00,,,0.00,136.000000,,2013-01-02 18:22:00,
2013-01-02 10:32:00,43.0,24.0,-100.00,SE,127,0.0,0.0,46,0.00,,,0.00,136.000000,,2013-01-02 18:32:00,
2013-01-02 10:53:00,45.0,23.0,-100.00,SE,135,6.0,14.0,42,0.00,,,0.00,121.000000,,2013-01-02 18:53:00,
2013-01-02 11:02:00,45.0,23.0,-100.00,SE,135,6.0,14.0,42,0.00,,,0.00,121.000000,,2013-01-02 19:02:00,
2013-01-02 11:12:00,45.0,23.0,-100.00,SE,135,6.0,14.0,42,0.00,,,0.00,121.000000,,2013-01-02 19:12:00,
2013-01-02 11:22:00,45.0,23.0,-100.00,SE,135,6.0,14.0,42,0.00,,,0.00,121.000000,,2013-01-02 19:22:00,
2013-01-02 11:32:00,45.0,23.0,-100.00,SE,135,6.0,14.0,42,0.00,,,0.00,121.000000,,2013-01-02 19:32:00,
2013-01-02 11:52:00,46.0,24.0,-100.00,SE,136,0.0,0.0,41,0.00,,,0.00,403.000000,,2013-01-02 19:52:00,
2013-01-02 12:02:00,46.0,24.0,-100.00,SE,136,0.0,0.0,41,0.00,,,0.00,403.000000,,2013-01-02 20:02:00,
2013-01-02 12:12:00,46.0,24.0,-100.00,SE,136,0.0,0.0,41,0.00,,,0.00,403.000000,,2013-01-02 20:12:00,
2013-01-02 12:22:00,46.0,24.0,-100.00,SE,136,0.0,0.0,41,0.00,,,0.00,403.000000,,2013-01-02 20:22:00,
2013-01-02 12:32:00,46.0,24.0,-100.00,SE,136,0.0,0.0,41,0.00,,,0.00,403.000000,,2013-01-02 20:32:00,
2013-01-02 12:53:00,46.0,26.0,-100.00,SE,136,0.0,0.0,46,0.00,,,0.00,471.000000,,2013-01-02 20:53:00,
2013-01-02 13:03:00,46.0,26.0,-100.00,SE,136,0.0,0.0,46,0.00,,,0.00,471.000000,,2013-01-02 21:03:00,
2013-01-02 13:12:00,46.0,26.0,-100.00,SE,136,0.0,0.0,46,0.00,,,0.00,471.000000,,2013-01-02 21:12:00,
2013-01-02 13:22:00,46.0,26.0,-100.00,SE,136,0.0,0.0,46,0.00,,,0.00,471.000000,,2013-01-02 21:22:00,
2013-01-02 13:32:00,46.0,26.0,-100.00,SE,136,0.0,0.0,46,0.00,,,0.00,471.000000,,2013-01-02 21:32:00,
2013-01-02 13:53:00,46.0,27.0,-100.00,SE,136,11.0,17.0,47,0.00,,,0.00,466.000000,,2013-01-02 21:53:00,
2013-01-02 14:02:00,46.0,27.0,-100.00,SE,136,11.0,17.0,47,0.00,,,0.00,466.000000,,2013-01-02 22:02:00,
2013-01-02 14:12:00,46.0,27.0,-100.00,SE,136,11.0,17.0,47,0.00,,,0.00,466.000000,,2013-01-02 22:12:00,
2013-01-02 14:22:00,46.0,27.0,-100.00,SE,136,11.0,17.0,47,0.00,,,0.00,466.000000,,2013-01-02 22:22:00,
2013-01-02 14:32:00,46.0,27.0,-100.00,SE,136,11.0,17.0,47,0.00,,,0.00,466.000000,,2013-01-02 22:32:00,
2013-01-02 14:53:00,47.0,27.0,-100.00,SE,136,10.0,15.0,46,0.00,,,0.00,383.000000,,2013-01-02 22:53:00,
2013-01-02 15:02:00,47.0,27.0,-100.00,SE,136,10.0,15.0,46,0.00,,,0.00,383.000000,,2013-01-02 23:02:00,
2013-01-02 15:12:00,47.0,27.0,-100.00,SE,136,10.0,15.0,46,0.00,,,0.00,383.000000,,2013-01-02 23:12:00,
2013-01-02 15:22:00,47.0,27.0,-100.00,SE,136,10.0,15.0,46,0.00,,,0.00,383.000000,,2013-01-02 23:22:00,
2013-01-02 15:32:00,47.0,27.0,-100.00,SE,136,10.0,15.0,46,0.00,,,0.00,383.000000,,2013-01-02 23:32:00,
2013-01-02 15:33:00,48.0,27.0,-100.00,SE,135,7.0,15.0,43,0.00,,,0.00,295.000000,,2013-01-02 23:33:00,
2013-01-02 15:53:00,48.0,27.0,-100.00,SE,135,7.0,15.0,43,0.00,,,0.00,295.000000,,2013-01-02 23:53:00,
2013-01-02 16:02:00,48.0,27.0,-100.00,SE,135,7.0,15.0,43,0.00,,,0.00,295.000000,,2013-01-03 00:02:00,
2013-01-02 16:12:00,48.0,27.0,-100.00,SE,135,7.0,15.0,43,0.00,,,0.00,295.000000,,2013-01-03 00:12:00,
2013-01-02 16:22:00,48.0,27.0,-100.00,SE,135,7.0,15.0,43,0.00,,,0.00,295.000000,,2013-01-03 00:22:00,
2013-01-02 16:52:00,48.0,28.0,-100.00,SSW,209,3.0,15.0,45,0.00,,,0.00,152.000000,,2013-01-03 00:52:00,
2013-01-02 17:02:00,48.0,28.0,-100.00,SSW,209,3.0,15.0,45,0.00,,,0.00,152.000000,,2013-01-03 01:02:00,
2013-01-02 17:12:00,48.0,28.0,-100.00,SSW,209,3.0,15.0,45,0.00,,,0.00,152.000000,,2013-01-03 01:12:00,
2013-01-02 17:22:00,48.0,28.0,-100.00,SSW,209,3.0,15.0,45,0.00,,,0.00,152.000000,,2013-01-03 01:22:00,
2013-01-02 17:32:00,48.0,28.0,-100.00,SSW,209,3.0,15.0,45,0.00,,,0.00,152.000000,,2013-01-03 01:32:00,
2013-01-02 17:52:00,45.0,26.0,-100.00,ESE,107,4.0,10.0,47,0.00,,,0.00,16.000000,,2013-01-03 01:52:00,
2013-01-02 18:02:00,45.0,26.0,-100.00,ESE,107,4.0,10.0,47,0.00,,,0.00,16.000000,,2013-01-03 02:02:00,
2013-01-02 18:12:00,45.0,26.0,-100.00,ESE,107,4.0,10.0,47,0.00,,,0.00,16.000000,,2013-01-03 02:12:00,
2013-01-02 18:22:00,45.0,26.0,-100.00,ESE,107,4.0,10.0,47,0.00,,,0.00,16.000000,,2013-01-03 02:22:00,
2013-01-02 18:32:00,45.0,26.0,-100.00,ESE,107,4.0,10.0,47,0.00,,,0.00,16.000000,,2013-01-03 02:32:00,
2013-01-02 18:33:00,46.0,26.0,-100.00,ESE,122,5.0,11.0,46,0.00,,,0.00,1.000000,,2013-01-03 02:33:00,
2013-01-02 19:02:00,46.0,26.0,-100.00,ESE,122,5.0,11.0,46,0.00,,,0.00,1.000000,,2013-01-03 03:02:00,
2013-01-02 19:12:00,46.0,26.0,-100.00,ESE,122,5.0,11.0,46,0.00,,,0.00,1.000000,,2013-01-03 03:12:00,
2013-01-02 19:22:00,46.0,26.0,-100.00,ESE,122,5.0,11.0,46,0.00,,,0.00,1.000000,,2013-01-03 03:22:00,
2013-01-02 19:53:00,47.0,24.0,-100.00,ESE,115,0.0,8.0,40,0.00,,,0.00,1.000000,,2013-01-03 03:53:00,
2013-01-02 20:02:00,47.0,24.0,-100.00,ESE,115,0.0,8.0,40,0.00,,,0.00,1.000000,,2013-01-03 04:02:00,
2013-01-02 20:12:00,47.0,24.0,-100.00,ESE,115,0.0,8.0,40,0.00,,,0.00,1.000000,,2013-01-03 04:12:00,
2013-01-02 20:22:00,47.0,24.0,-100.00,ESE,115,0.0,8.0,40,0.00,,,0.00,1.000000,,2013-01-03 04:22:00,
2013-01-02 20:32:00,47.0,24.0,-100.00,ESE,115,0.0,8.0,40,0.00,,,0.00,1.000000,,2013-01-03 04:32:00,
2013-01-02 20:33:00,47.0,22.0,-100.00,ESE,113,0.0,0.0,37,0.00,,,-99.99,1.000000,,2013-01-03 04:33:00,
2013-01-02 20:52:00,47.0,22.0,-100.00,ESE,113,0.0,0.0,37,0.00,,,-99.99,1.000000,,2013-01-03 04:52:00,
2013-01-02 21:03:00,47.0,22.0,-100.00,ESE,113,0.0,0.0,37,0.00,,,-99.99,1.000000,,2013-01-03 05:03:00,
2013-01-02 21:12:00,47.0,22.0,-100.00,ESE,113,0.0,0.0,37,0.00,,,-99.99,1.000000,,2013-01-03 05:12:00,
2013-01-02 21:22:00,47.0,22.0,-100.00,ESE,113,0.0,0.0,37,0.00,,,-99.99,1.000000,,2013-01-03 05:22:00,
2013-01-02 21:53:00,46.0,25.0,-100.00,ESE,123,0.0,0.0,44,0.00,,,0.00,1.000000,,2013-01-03 05:53:00,
2013-01-02 22:02:00,46.0,25.0,-100.00,ESE,123,0.0,0.0,44,0.00,,,0.00,1.000000,,2013-01-03 06:02:00,
2013-01-02 22:12:00,46.0,25.0,-100.00,ESE,123,0.0,0.0,44,0.00,,,0.00,1.000000,,2013-01-03 06:12:00,
2013-01-02 22:22:00,46.0,25.0,-100.00,ESE,123,0.0,0.0,44,0.00,,,0.00,1.000000,,2013-01-03 06:22:00,
2013-01-02 22:32:00,46.0,25.0,-100.00,ESE,123,0.0,0.0,44,0.00,,,0.00,1.000000,,2013-01-03 06:32:00,
2013-01-02 22:52:00,45.0,24.0,-100.00,East,96,0.0,0.0,44,0.00,,,0.00,1.000000,,2013-01-03 06:52:00,
2013-01-02 23:02:00,45.0,24.0,-100.00,East,96,0.0,0.0,44,0.00,,,0.00,1.000000,,2013-01-03 07:02:00,
2013-01-02 23:12:00,45.0,24.0,-100.00,East,96,0.0,0.0,44,0.00,,,0.00,1.000000,,2013-01-03 07:12:00,
2013-01-02 23:22:00,45.0,24.0,-100.00,East,96,0.0,0.0,44,0.00,,,0.00,1.000000,,2013-01-03 07:22:00,
2013-01-02 23:32:00,45.0,24.0,-100.00,East,96,0.0,0.0,44,0.00,,,0.00,1.000000,,2013-01-03 07:32:00,
2013-01-02 23:53:00,45.0,25.0,-100.00,ESE,121,0.0,0.0,45,0.00,,,0.00,1.000000,,2013-01-03 07:53:00,